This is the latest recevied weather packets stored in our database for station/object W0AKO. If no packets are shown the sender has not sent any weather packets the latest 10 day(s).
| Time | Temp. | Humidity | Pressure | Rain* | Wind** | Luminosity | Snow |
|---|---|---|---|---|---|---|---|
| 1778100129 | 26.67° C | 10% | 1017 hPa | 0 mm | - | 768 W/m² | - |
| 1778099827 | 27.22° C | 10% | 1016.7 hPa | 0 mm | - | 784 W/m² | - |
| 1778099524 | 25.56° C | 10% | 1016.8 hPa | 0 mm | - | 861 W/m² | - |
| 1778099222 | 26.11° C | 10% | 1017 hPa | 0 mm | - | 173 W/m² | - |
| 1778098917 | 27.22° C | 10% | 1016.8 hPa | 0 mm | - | 860 W/m² | - |
| 1778098615 | 27.22° C | 10% | 1017 hPa | 0 mm | - | 857 W/m² | - |
| 1778098311 | 27.78° C | 10% | 1017 hPa | 0 mm | - | 543 W/m² | - |
| 1778098008 | 28.33° C | 10% | 1017.1 hPa | 0 mm | - | 823 W/m² | - |
| 1778097704 | 27.78° C | 10% | 1017.2 hPa | 0 mm | - | 796 W/m² | - |
| 1778097401 | 27.22° C | 10% | 1017.3 hPa | 0 mm | - | 802 W/m² | - |
| 1778097098 | 25.56° C | 10% | 1017.1 hPa | 0 mm | - | 766 W/m² | - |
| 1778096795 | 25° C | 10% | 1017.3 hPa | 0 mm | - | 708 W/m² | - |
| 1778096491 | 25.56° C | 10% | 1017.2 hPa | 0 mm | - | 679 W/m² | - |
| 1778096189 | 25.56° C | 10% | 1017.2 hPa | 0 mm | - | 654 W/m² | - |
| 1778095886 | 27.22° C | 10% | 1017.5 hPa | 0 mm | - | 667 W/m² | - |
| 1778095583 | 26.11° C | 10% | 1017.5 hPa | 0 mm | - | 670 W/m² | - |
| 1778095279 | 26.67° C | 10% | 1017.7 hPa | 0 mm | - | 655 W/m² | - |
| 1778094976 | 25.56° C | 10% | 1017.3 hPa | 0 mm | - | 666 W/m² | - |
| 1778094671 | 26.11° C | 10% | 1017.7 hPa | 0 mm | - | 718 W/m² | - |
| 1778094369 | 26.11° C | 10% | 1017.6 hPa | 0 mm | - | 772 W/m² | - |
| 1778094066 | 25.56° C | 10% | 1017.5 hPa | 0 mm | - | 766 W/m² | - |
| 1778093763 | 25.56° C | 10% | 1017.8 hPa | 0 mm | - | 758 W/m² | - |
| 1778093453 | 25.56° C | 10% | 1017.8 hPa | 0 mm | - | 763 W/m² | - |
| 1778093151 | 25.56° C | 10% | 1017.9 hPa | 0 mm | - | 782 W/m² | - |
| 1778092848 | 26.11° C | 10% | 1017.8 hPa | 0 mm | - | 763 W/m² | - |
* Rain latest hour (hover to see other rain measurements)
** Current wind speed in m/s (hover to see current wind gust speed)